Tracking 30995 objects as of 7-Jul-2025
HD Live streaming from Space Station
objects crossing your sky now

STARLINK-3817

Track STARLINK-3817 now!
10-day predictions
STARLINK-3817 is classified as:


NORAD ID: 52367
Int'l Code: 2022-045AN
Perigee: 546.1 km
Apogee: 547.7 km
Inclination: 53.2 °
Period: 95.4 minutes
Semi major axis: 6917 km
RCS: Unknown
Launch date: April 29, 2022
Source: United States (US)
Launch site: AIR FORCE EASTERN TEST RANGE (AFETR)
Your satellite tracking list
Your tracking list is empty




NASA's NSSDC Master Catalog

Two Line Element Set (TLE):
1 52367U 22045AN  25187.36877898 -.00000295  00000-0 -47444-6 0  9992
2 52367  53.2161 214.8989 0001170  83.1262 276.9863 15.08837290178735
Source of the keplerian elements: AFSPC